Location: Benevento
(41.1333°N, 14.7500°E)
Time: 06:31:25
(UTC+00:00)

Daily predictions for brighter satellites

Satellite Brightness Start Highest point End
(mag) Time Altitude Azimuth Time Altitude Azimuth Time Altitude Azimuth
Cosmos 2082 Rocket 2.2 18:20:48 10° S 18:26:23 62° ESE 18:32:00 10° NNE
Sich 1 3.2 18:24:35 10° S 18:28:53 54° E 18:33:14 10° NNE
Cosmos 2369 3.8 18:27:06 10° NNW 18:32:51 72° ENE 18:38:32 10° SSE
COSMOS 2406 4.4 18:27:19 10° SW 18:32:52 49° WNW 18:38:26 10° NNE
Cosmos 2322 Rocket 4.2 18:34:13 10° NNE 18:37:02 14° NE 18:39:52 10° ENE
H-2A R/B 2.6 18:32:39 10° S 18:37:42 61° W 18:42:38 10° NNW
CZ-4 R/B 4.2 18:35:08 10° SW 18:37:49 17° W 18:40:32 10° NW
Cosmos 2278 4.0 18:33:30 10° NNW 18:39:07 54° ENE 18:44:40 10° SE
Cosmos 2228 Rocket 3.8 18:35:13 10° NNW 18:39:33 57° W 18:43:50 10° S
USA 186 0.7 18:37:24 10° SSE 18:39:38 87° ENE 18:41:53 10° N
ATLAS 5 CENTAUR R/B 3.8 18:34:52 10° NW 18:40:23 38° WSW 18:46:35 10° S
ATLAS 3B R/B 4.1 18:38:38 10° SE 18:41:32 13° ESE 18:44:26 10° ENE
Cosmos 389 Rocket 2.9 18:39:50 10° NNW 18:43:16 63° W 18:46:43 10° S
Cosmos 676 Rocket 4.1 18:38:28 10° S 18:43:39 57° ESE 18:48:53 10° NNE
Meteor 1-4 Rocket 3.2 18:41:27 10° N 18:44:37 33° ENE 18:47:38 11° SE
MOS 1 4.3 18:41:17 10° SSE 18:46:54 75° ENE 18:52:35 10° N
CZ-2C R/B 4.4 18:44:56 10° SSW 18:49:19 36° W 18:53:43 10° NNW
Cosmos 1934 Rocket 4.2 18:44:08 10° SSE 18:50:14 51° E 18:56:21 10° NNE
Genesis I 3.1 18:47:21 10° NNW 18:51:14 83° ENE 18:54:47 12° SE
Cosmos 1238 Rocket 4.0 18:51:42 14° E 18:52:05 14° E 18:53:43 10° NE
USA 276 4.4 18:52:20 10° NW 18:54:42 19° N 18:57:03 10° ENE
X-37B 1.6 18:52:16 10° WNW 18:55:16 40° N 18:58:07 11° ENE
Cosmos 1980 Rocket 2.3 18:50:23 10° NNW 18:56:02 66° ENE 19:01:19 12° SSE
IRIDIUM 104 4.5 18:51:29 10° S 18:56:42 81° W 19:01:57 10° N
Lacrosse 5 2.9 18:54:03 10° NNW 18:58:44 36° NE 19:02:39 14° E
CZ-2C R/B 3.9 18:55:37 10° NNE 19:00:02 49° E 19:04:21 10° S
Resurs 01 Rocket 2.4 18:57:22 14° SE 19:00:33 34° ENE 19:04:34 10° N
Cosmos 1833 Rocket 4.2 18:56:42 10° SW 19:01:58 41° WNW 19:07:16 10° N
USA 238 DEB 3.6 18:58:44 10° SSW 19:05:20 89° SE 19:12:13 10° NE
SPOT 3 Rocket 3.7 19:00:21 10° SSE 19:05:22 59° ENE 19:10:29 10° N
USA 238 3.6 18:58:51 10° SSW 19:05:26 88° ESE 19:12:19 10° NE
Cosmos 1867 4.5 19:02:17 10° SW 19:07:36 53° NW 19:12:56 10° NNE
Cosmos 1697 Rocket 3.4 19:02:53 10° NNW 19:08:20 52° WSW 19:13:44 10° S
Cosmos 1933 Rocket 4.5 19:05:54 16° SE 19:08:34 29° E 19:12:25 10° NNE
GP-B 4.0 19:04:54 10° NNE 19:08:51 30° E 19:11:10 19° SE
Cosmos 1666 Rocket 3.6 19:04:37 10° S 19:08:56 82° W 19:13:18 10° N
CENTAUR R/B 2.4 19:03:23 10° SSW 19:08:58 58° ESE 19:15:32 10° NE
Cosmos 1954 Rocket 4.1 19:06:30 10° SSW 19:11:49 83° WNW 19:17:10 10° NNE
Meteor 1-20 Rocket 4.5 19:06:40 10° SSE 19:12:16 52° E 19:17:55 10° NNE
FREGAT/IRIS 4.3 19:13:08 10° SSW 19:15:27 27° W 19:17:47 10° NW
DMSP B5D2-2 4.3 19:10:46 10° N 19:16:00 73° WNW 19:21:13 10° SSW
Ariane Rocket 3.9 19:11:27 10° S 19:16:19 48° W 19:21:13 10° NNW
Cosmos 405 Rocket 3.2 19:15:00 22° SSE 19:16:51 36° E 19:20:19 10° NNE
Cosmos 1741 Rocket 4.4 19:14:49 10° S 19:19:44 42° ESE 19:24:42 10° NNE
Intercosmos 25 4.1 19:17:12 10° NNW 19:20:30 43° W 19:23:31 10° SSW
Okean 1-7 4.4 19:20:57 10° NNE 19:24:16 21° ENE 19:24:59 20° E
SJ-6B 4.2 19:20:38 10° SSW 19:24:23 38° W 19:28:07 10° NNW
Resurs 1-3 3.7 19:25:39 14° S 19:29:23 75° WSW 19:33:48 10° NNW
NOSS 2 (A) 3.9 19:27:44 10° NW 19:30:11 72° WSW 19:30:20 68° SSW
Cosmos 1763 Rocket 4.0 19:25:46 10° N 19:30:51 43° ENE 19:33:12 27° ESE
Cosmos 1437 Rocket 3.9 19:28:26 10° NNE 19:31:38 25° ENE 19:31:55 25° E
OBJECT-B 1.6 19:29:41 16° S 19:32:06 51° W 19:35:19 10° NNW
Cosmos 2084 Rocket 3.3 19:30:04 10° SW 19:34:14 89° NW 19:38:31 10° NE
Cosmos 1703 Rocket 4.4 19:30:33 10° NNE 19:34:24 30° ENE 19:35:10 28° E
Cosmos 1633 Rocket 4.0 19:31:32 10° SSW 19:35:50 50° W 19:40:08 10° N
H-2A R/B 3.6 19:32:32 10° NNE 19:36:34 51° E 19:38:17 30° SSE
Cosmos 1184 Rocket 3.9 19:33:37 10° SSW 19:36:47 45° WNW 19:39:58 10° N
Landsat 7 4.4 19:36:27 30° ESE 19:38:05 40° ENE 19:42:32 10° N
SPOT 5 4.3 19:38:25 17° ENE 19:38:54 17° ENE 19:41:46 10° NNE
Cosmos 921 Rocket 2.9 19:39:00 10° NNW 19:43:12 80° WSW 19:45:04 32° S
MetOp-B 4.2 19:40:52 29° SE 19:43:37 64° ENE 19:48:55 10° N
Cosmos 2123 Rocket 4.2 19:38:11 10° NNW 19:44:23 70° W 19:50:25 11° S
Cosmos 1605 Rocket 3.9 19:44:24 10° S 19:50:31 85° W 19:56:38 10° N
Meteor 1-19 Rocket 4.2 19:47:31 10° N 19:52:55 61° ENE 19:54:58 37° SE
Cosmos 2100 Rocket 4.4 19:52:15 33° ESE 19:53:55 39° E 19:59:33 10° NNE
Okean 1 3.2 19:51:22 10° N 19:55:25 72° E 19:56:09 56° SE
Cosmos 2173 Rocket 4.4 19:56:36 35° ESE 19:58:01 40° E 20:03:37 10° NNE
USA 267 3.2 19:51:54 10° NE 19:58:25 65° SE 20:04:53 10° SW
Cosmos 2219 Rocket 4.3 19:58:07 10° NNE 20:00:37 13° NE 20:02:41 11° ENE
Meteor 2-4 Rocket 4.1 19:56:14 10° N 20:01:32 43° ENE 20:02:35 39° ESE
Cosmos 540 Rocket 4.0 19:58:50 10° N 20:03:45 42° ENE 20:04:39 38° E
SL-4 R/B 4.5 20:01:52 10° NW 20:04:28 17° N 20:06:56 10° NE
SL-27 R/B 2.4 20:04:28 72° W 20:04:30 72° WNW 20:07:49 10° NNE
SL-16 R/B 2.2 19:59:02 10° NNW 20:04:43 70° ENE 20:06:27 45° SE
BREEZE-M DEB (TANK) 4.3 20:02:48 10° NW 20:05:43 31° NNE 20:12:52 10° ENE
NOSS 3-2 (C) 4.1 20:00:48 10° SW 20:06:21 54° NW 20:12:41 10° NNE
Cosmos 2242 Rocket 3.5 20:03:39 10° N 20:08:04 81° W 20:09:08 51° S
Cosmos 1459 Rocket 4.2 20:09:17 41° SE 20:10:54 51° E 20:17:01 10° NNE
ERS-1 Rocket 3.2 20:16:14 49° E 20:16:44 51° ENE 20:21:36 10° N
Meteor 1-14 Rocket 4.4 20:13:21 22° SSW 20:17:20 80° W 20:23:19 10° N
Cosmos 2322 Rocket 2.1 20:16:19 10° NNW 20:22:03 79° ENE 20:23:14 57° SE
Cosmos 1500 4.0 20:25:36 43° NNE 20:25:36 43° NNE 20:28:12 10° N
SPOT 1/Viking Rocket 3.5 20:23:32 57° SSE 20:24:39 88° WSW 20:29:55 10° NNW
Terra 2.5 20:27:56 40° ENE 20:27:56 40° ENE 20:32:05 10° N
Cosmos 841 Rocket 3.4 20:24:12 10° NNW 20:29:27 74° ENE 20:29:56 69° ESE
IGS 5A 3.9 20:29:39 52° WSW 20:29:58 53° W 20:34:03 10° NNW
ATLAS 3B R/B 2.4 20:24:33 10° SSW 20:31:10 82° ESE 20:37:48 10° NE
Cosmos 2360 Rocket 2.5 20:25:42 10° NNW 20:31:13 50° ENE 20:31:48 48° E
USA 276 4.0 20:28:20 10° NW 20:30:10 30° NW 20:30:10 30° NW
X-37B 2.7 20:28:53 10° WNW 20:30:22 25° WNW 20:30:22 25° WNW
USA 234 4.1 20:29:00 25° E 20:32:13 41° NNE 20:38:14 10° NW
Okean 3 4.4 20:28:55 10° N 20:32:07 40° NE 20:32:07 40° NE
Cosmos 2237 4.3 20:29:46 10° NNW 20:35:26 60° ENE 20:35:58 57° E
Resurs 01 Rocket 3.7 20:34:56 15° SW 20:37:06 21° W 20:40:31 10° NW
Iridium 4 Rocket 3.9 20:38:44 39° NNE 20:38:44 39° NNE 20:41:33 10° N
Cosmos 1980 Rocket 4.5 20:35:56 10° WNW 20:39:23 17° W 20:42:50 10° SW
CARTOSAT-1 3.7 20:40:31 69° N 20:40:31 69° N 20:44:20 10° NNW
Cosmos 44 3.3 20:35:26 10° NW 20:40:26 75° WSW 20:40:36 74° SW
Lacrosse 5 2.4 20:36:57 10° NW 20:41:47 45° SW 20:41:50 45° SW
Cosmos 2061 Rocket 3.8 20:50:45 69° ESE 20:51:05 71° E 20:57:16 10° NNE
Spot 2 Rocket 4.5 20:51:17 35° SW 20:52:20 39° W 20:57:06 10° NNW
Cosmos 1802 Rocket 3.9 20:54:58 64° S 20:56:05 88° W 21:02:28 10° N
Cosmos 1814 Rocket 4.0 20:51:52 10° NNW 20:56:56 77° W 20:56:56 77° W
COSMOS 2428 4.0 20:52:41 10° N 20:57:36 28° NE 20:57:48 28° ENE
Cosmos 1869 Rocket 4.5 20:57:44 44° W 20:57:52 44° WNW 21:02:09 10° N
CENTAUR R/B 4.3 20:54:42 10° W 21:00:04 31° NW 21:06:17 10° NNE
Cosmos 2237 Rocket 4.4 20:58:58 10° NNE 21:01:36 13° NE 21:02:46 13° ENE
Cosmos 1816 Rocket 4.4 21:02:58 10° N 21:09:03 70° ENE 21:09:03 70° ENE
ATLAS 5 CENTAUR R/B 3.0 21:12:15 10° NNW 21:14:58 53° NNE 21:14:58 53° NNE
Cosmos 2333 Rocket 2.8 21:10:13 10° NNW 21:15:19 46° NE 21:15:19 46° NE
SPOT 5 3.9 21:17:39 37° WNW 21:17:39 37° WNW 21:20:51 10° NNW
Cosmos 1066 Rocket 4.5 21:16:46 10° N 21:21:30 62° NNE 21:21:30 62° NNE
Meteor 1-11 Rocket 4.3 21:31:46 53° W 21:31:56 53° WNW 21:37:35 10° N
Lacrosse 4 Rocket 3.4 21:37:37 27° NNW 21:37:37 27° NNW 21:40:07 10° N
Tsikada Rocket 4.1 21:32:52 10° N 21:38:46 74° NW 21:38:46 74° NW
USA 267 4.3 21:35:07 10° NE 21:41:13 43° NNW 21:47:17 10° W
Cosmos 2219 Rocket 2.7 21:39:53 10° NNW 21:44:23 55° N 21:44:23 55° N
SL-16 R/B 4.3 21:44:52 10° WNW 21:48:08 16° W 21:48:20 16° W
Cosmos 2322 Rocket 4.5 22:02:32 10° WNW 22:05:03 14° W 22:05:03 14° W
Terra 4.0 22:06:49 19° WNW 22:06:49 19° WNW 22:09:07 10° NW
Cosmos 2360 Rocket 4.1 22:10:30 10° NW 22:13:33 21° W 22:13:33 21° W
USA 234 3.6 22:16:20 55° WNW 22:16:20 55° WNW 22:21:30 10° NW
SL-16 R/B 4.2 22:13:22 10° N 22:17:20 19° NE 22:17:41 19° NE
Cosmos 2297 Rocket 3.7 22:32:12 29° NE 22:32:12 29° NE 22:34:56 10° NNE
COSMOS 2428 4.2 22:36:37 10° NW 22:39:48 30° WNW 22:39:48 30° WNW
Cosmos 2219 4.5 22:46:31 36° NNE 22:46:31 36° NNE 22:49:45 10° NNE
Cosmos 2237 Rocket 3.3 22:40:59 10° NNW 22:44:34 40° NNW 22:44:34 40° NNW
Cosmos 2333 Rocket 4.2 22:55:07 10° NW 22:57:19 19° WNW 22:57:19 19° WNW
Cosmos 2227 Rocket 3.3 23:22:00 41° N 23:22:00 41° N 23:25:43 10° NNE
Resurs 1-4 Rocket 4.2 23:33:09 10° NE 23:35:32 18° ENE 23:35:32 18° ENE
USA 229 DEB 4.0 23:53:16 59° NE 23:53:16 59° NE 23:58:44 10° NE
USA 229 4.0 23:53:24 58° NE 23:53:24 58° NE 23:58:49 10° NE
